This is the latest recevied weather packets stored in our database for station/object OH6GKW. If no packets are shown the sender has not sent any weather packets the latest 1 day(s).
| Time | Temp. | Humidity | Pressure | Rain* | Wind** | Luminosity | Snow |
|---|---|---|---|---|---|---|---|
| 1778025829 | 3.33° C | 70% | 1001.2 hPa | 0 mm | 0.89 m/s, 264° | 0 W/m² | - |
| 1778025520 | 3.33° C | 69% | 1001.2 hPa | 0 mm | 1.34 m/s, 281° | 0 W/m² | - |
| 1778025212 | 3.33° C | 69% | 1001.2 hPa | 0 mm | 1.34 m/s, 292° | 0 W/m² | - |
| 1778024927 | 3.33° C | 69% | 1001.2 hPa | 0 mm | 1.34 m/s, 252° | 0 W/m² | - |
| 1778024620 | 3.33° C | 69% | 1001.2 hPa | 0 mm | 0.89 m/s, 268° | 0 W/m² | - |
| 1778024316 | 3.33° C | 69% | 1001.2 hPa | 0 mm | 0.89 m/s, 252° | 0 W/m² | - |
| 1778024007 | 3.33° C | 68% | 1001.2 hPa | 0 mm | 0.89 m/s, 286° | 0 W/m² | - |
| 1778023723 | 3.33° C | 67% | 1001.1 hPa | 0 mm | 0.89 m/s, 262° | 0 W/m² | - |
| 1778023415 | 3.33° C | 67% | 1001.1 hPa | 0 mm | 0.89 m/s, 254° | 0 W/m² | - |
| 1778023111 | 3.33° C | 67% | 1001.1 hPa | 0 mm | 0.45 m/s, 251° | 0 W/m² | - |
| 1778022832 | 3.33° C | 66% | 1001.1 hPa | 0 mm | 0.45 m/s, 261° | 0 W/m² | - |
| 1778022524 | 3.33° C | 66% | 1001.1 hPa | 0 mm | 0.89 m/s, 243° | 0 W/m² | - |
| 1778022219 | 3.33° C | 66% | 1001.1 hPa | 0 mm | 1.34 m/s, 259° | 0 W/m² | - |
| 1778021913 | 3.33° C | 66% | 1001.1 hPa | 0 mm | 1.34 m/s, 258° | 0 W/m² | - |
| 1778021626 | 3.33° C | 67% | 1001.1 hPa | 0 mm | 0.45 m/s, 282° | 0 W/m² | - |
| 1778021320 | 2.78° C | 69% | 1001.1 hPa | 0 mm | 0.45 m/s, 303° | 0 W/m² | - |
| 1778021013 | 2.78° C | 69% | 1001.1 hPa | 0 mm | 0.45 m/s, 265° | 0 W/m² | - |
| 1778020709 | 2.78° C | 70% | 1001.1 hPa | 0 mm | 0.45 m/s, 238° | 0 W/m² | - |
| 1778020435 | 2.78° C | 71% | 1001.1 hPa | 0 mm | 0.45 m/s, 250° | 0 W/m² | - |
| 1778020125 | 2.22° C | 72% | 1001.1 hPa | 0 mm | 0.45 m/s, 238° | 0 W/m² | - |
| 1778019816 | 2.22° C | 73% | 1001.1 hPa | 0 mm | 0.45 m/s, 276° | 0 W/m² | - |
| 1778019527 | 2.22° C | 75% | 1001.1 hPa | 0 mm | 0 m/s | 0 W/m² | - |
| 1778019224 | 1.67° C | 75% | 1001.1 hPa | 0 mm | 0 m/s | 0 W/m² | - |
| 1778018920 | 1.67° C | 76% | 1001.1 hPa | 0 mm | 0 m/s | 0 W/m² | - |
| 1778018615 | 1.67° C | 76% | 1001.1 hPa | 0 mm | 0 m/s | 0 W/m² | - |
* Rain since midnight (hover to see other rain measurements)
** Current wind speed in m/s (hover to see current wind gust speed)